COSMOS 2251 DEB

Satellite information

Favourite Embed

Satellite Type and Status

DEBRISIN ORBIT

Key statistics

Satellite COSMOS 2251 DEB at a glance.

Uptime

11771

Days in orbit

Revolutions

≈ 14.7

Per day

Orbit

LEO

Low Earth Orbit

Inclination

74.0

Latest

Satellite identification and parameters

Extended collection of information and parameters for COSMOS 2251 DEB.

Object identification

Identified? True

Debris? True

Object name: COSMOS 2251 DEB

International designator: 1993-036KH

Object number (NORAD): 34070

Object ID (CCSDS): 34070

Country: COMMONWEALTH OF INDEPENDENT STATES (CIS)

Current information (Y/N): Y

RCS size: SMALL

Orbital parameters

Period: 97.753 minutes

Inclination: 74.0032 deg

SMA: 7029.322 km

Apoapsis: 666.154 km

Periapsis: 636.221 km

RAAN: 307.8346 deg

Eccentricy: 0.00212911

Argument of periapsis: 74.9602 deg

Mean anomaly: 101.3445 deg

Mean motion: 14.73101141 rev/day

Mean motion (dot): 0.00014337 rev/day2

B* drag term: 0.0022189852 1/REarth

Two-line elements (TLE)

Creation date: Sept. 6, 2025, 2:09 a.m.

Reference frame: TEME

Reference center: EARTH

Epoch: Sept. 5, 2025, 9:49 p.m. UTC

TLE line 0: 0 COSMOS 2251 DEB

TLE line 1: 1 34070U 93036KH 25248.90914777 .00014337 00000-0 22190-2 0 9994

TLE line 2: 2 34070 74.0032 307.8346 0021291 74.9602 101.3445 14.73101141871687

Live tracking on map

Real-time ground track for satellite COSMOS 2251 DEB.

In-orbit conjunctions

A list of the most updated potential collisions computed for object COSMOS 2251 DEB.

Target Orbit TCA Probability of collision Miss distance Type
ATLAS CENTAUR R/B LEO 2024-06-14 00:58:17 0.0002204707 26.0 (m) ROCKET BODY

Associated space launch

Military communications satellite. Destroyed in a collision with Iridium 33.

COSMOS 2251 DEB was lifted into orbit during the mission ‘Kosmos-3M | Strela-2M 51’, on board a Kosmos-3M space rocket.

The launch took place on June 16, 1993, 4:17 a.m. from 132/1 (132L).

For more information about the launch, click the button.

Launch to space Kosmos-3M | Strela-2M 51
Kosmos-3M | Strela-2M 51

Agency: N/A

Status: Launch Successful

Launch date: June 16, 1993, 4:17 a.m. UTC

Rocket: Kosmos-3M

Launch pad: 132/1 (132L)

Location: Plesetsk Cosmodrome, Russian Federation

...

Latest news about this satellite

There are no fresh news available about this satellite. Check back as we update our databases every day.


Newsletter sign-up

Weekly statistics, charts and insights to help you stay on top of the space industry.